Lid_Strength_Index
8 7 7 7 7 6 7 6 6 5 3 2 1 1 1 1 1 1 2 2 2 2 2 2 2 2 2 2 2 2 2 3 4 6 6 6 6 6 5 6 5 6 5
7 7 7 7 7 7 7 6 6 5 4 3 2 2 2 1 1 2 2 2 2 2 2 2 2 1 2 2 2 2 2 3 5 6 7 7 7 6 7 6 6 5 6
7 7 7 7 8 8 7 6 6 6 4 4 3 3 2 2 1 2 2 2 2 2 2 2 2 2 2 2 2 2 2 3 4 6 7 6 7 7 8 7 7 8 6
7 7 8 7 7 8 7 7 6 5 5 4 4 3 2 2 2 2 2 2 2 2 2 2 2 2 2 3 2 2 3 4 5 6 7 7 7 8 8 8 9 8 8
7 8 8 7 8 8 7 7 6 6 5 4 4 3 2 2 2 2 2 2 2 2 2 2 1 2 2 2 3 3 4 5 6 6 7 8 8 9 9 8 8 8 9
8 8 8 7 8 8 8 7 6 6 6 5 5 5 3 2 6 6 3 2 2 2 2 2 1 3 3 6 7 6 5 5 6 7 7 8 8 7 8 9 9 9 11
8 8 8 8 8 8 7 7 7 7 6 6 6 5 3 2 8 8 7 2 2 3 2 2 2 1 3 4 8 8 7 7 6 5 7 7 7 6 7 9 9 9 11
8 9 9 9 8 8 8 7 7 6 7 6 6 5 4 2 9 9 8 2 2 2 2 2 2 2 2 4 5 5 5 6 6 4 5 5 5 6 7 7 8 8 8
9 9 9 9 8 8 8 7 7 6 7 6 5 5 5 3 9 9 7 2 3 2 2 2 2 2 8 9 4 5 5 5 7 8 7 9 9 9 7 7 8 9 9
9 9 9 8 7 8 7 7 6 6 6 5 5 4 5 4 8 10 6 2 3 3 3 2 6 3 11 10 4 5 5 6 7 8 8 9 9 9 9 6 7 8 7
9 9 8 8 8 7 7 5 5 6 5 5 5 4 4 4 8 10 9 2 3 3 3 3 4 11 12 11 7 5 6 6 7 6 7 7 6 7 6 5 6 5 6
9 8 8 8 7 6 4 5 6 6 5 4 4 4 3 6 9 10 10 7 6 3 3 2 5 12 12 12 8 11 11 8 5 7 7 7 7 7 6 6 6 5 4
9 9 8 8 7 6 5 5 5 5 4 5 5 6 4 5 7 10 10 10 8 3 2 7 12 13 13 12 12 11 10 6 6 7 7 7 7 6 6 7 8 7 8
9 9 8 8 8 7 6 7 7 8 8 8 9 10 4 5 6 7 8 8 9 8 9 8 10 9 9 9 8 7 5 6 5 7 8 7 7 7 7 8 8 7 10
9 8 9 8 8 8 8 8 8 8 11 11 10 11 4 5 5 8 7 4 5 8 8 7 7 8 8 7 6 7 7 7 7 8 8 7 7 7 8 7 7 10 11
10 9 10 8 8 9 9 9 9 10 11 12 12 11 9 12 11 10 11 11 12 12 6 6 6 7 8 7 6 8 6 8 7 7 7 7 7 7 8 8 8 10 11
10 9 10 9 10 10 10 10 11 10 10 11 13 12 14 14 12 12 12 11 13 8 5 6 6 6 7 7 6 6 7 7 6 7 7 7 7 9 9 8 9 11 12
10 10 10 10 11 11 11 11 11 12 12 12 11 12 13 14 12 11 11 9 6 6 5 4 6 7 7 6 6 6 7 7 7 7 6 6 7 8 8 8 10 11 12
10 11 11 11 11 11 11 11 11 11 12 12 11 11 12 12 12 11 9 5 6 6 6 5 5 6 6 6 6 6 6 7 6 7 6 6 7 8 8 8 9 13 13
11 11 11 11 12 12 12 12 12 12 12 12 12 12 12 10 9 8 7 6 5 6 5 6 6 5 5 5 5 6 6 7 7 6 6 6 7 7 8 8 9 11 11
10 11 13 12 13 13 13 13 13 13 13 13 13 12 14 11 10 9 8 8 7 6 6 6 5 5 5 5 5 6 6 6 6 6 7 7 7 8 8 8 9 9 11
10 11 11 12 13 13 14 13 14 14 14 13 13 12 13 11 11 10 10 8 7 7 6 6 6 6 6 5 5 6 6 6 6 6 6 6 7 7 8 8 9 12 13
10 11 11 12 12 13 13 13 14 14 14 14 14 13 12 12 12 12 11 9 9 8 7 6 7 6 6 6 5 5 5 6 6 5 6 6 6 6 8 8 10 12 13
9 10 11 12 12 12 13 13 13 14 14 14 14 14 13 12 12 11 11 11 10 9 8 8 7 6 7 6 6 6 5 6 5 5 5 5 5 8 7 9 10 11 12
9 10 9 10 11 12 12 13 13 14 14 14 13 13 13 13 12 11 11 11 11 10 10 9 8 7 7 6 6 7 11 13 6 9 4 5 5 7 8 8 8 9 11
9 9 10 11 10 10 11 11 12 13 14 13 13 12 13 13 13 12 11 10 10 10 10 10 10 10 10 10 10 12 13 13 9 11 6 7 7 8 7 8 8 9 10